Location: Usti nad Labem
(50.6670°N, 14.0330°E)
Time: 21:43:15
(UTC+01:00)

Envisat - Pass Details

Date: 11 December 2020
Orbit: 764 x 766 km, 98.1° (Epoch: 15 January)

Event Time Altitude Azimuth Distance (km) Brightness Sun altitude
Rises 06:44:18 0° 10° (N) 3,246 6.1 -10.6°
Reaches altitude 10° 06:46:41 10° 5° (N) 2,315 5.3 -10.2°
Maximum altitude 06:51:35 50° 292° (WNW) 977 3.2 -9.5°
Drops below altitude 10° 06:56:27 10° 218° (SW) 2,298 5.4 -8.8°
Sets 06:58:48 0° 213° (SSW) 3,220 6.2 -8.5°
